#timestamp,LO_Frequency,Hit,StdDev 
1672844415.4,286047002.4,N
1672844435.3,286047001.4,N
1672844455.1,286047001.8,N
1672844456.0,286047001.8,N
1672844475.8,286047001.6,N
1672844495.7,286047001.6,N
1672844515.5,286046999.9,N
1672844535.3,286047002.1,N
1672844555.2,286046999.8,N
1672844575.9,286047002.0,N
1672844595.7,286047002.8,N
1672844615.6,286047001.5,N
1672844635.4,286047003.1,Y
1672844655.2,286046999.7,P
1672844675.1,286047001.0,N
1672844676.0,286047001.0,N
1672844695.8,286047000.4,N
1672844715.6,286047002.0,Y
1672844735.5,286047002.5,P
1672844755.3,286047002.7,P
1672844775.1,286046999.9,N
1672844795.9,286046999.4,N
1672844815.7,286046998.9,N
1672844835.5,286046998.2,N
1672844855.4,286047000.7,N
1672844875.2,286046999.7,N
1672844895.0,286047001.4,N
1672844895.9,286047001.4,N
1672844915.8,286047001.3,N
1672844935.6,286047002.6,N
1672844955.4,286046999.9,N
1672844975.3,286047000.2,N
1672844995.1,286047001.8,N
1672845015.8,286047003.9,N
1672845035.7,286047003.8,N
1672845055.5,286047002.6,N
1672845075.3,286047002.5,N
1672845095.2,286047001.5,N
1672845115.0,286047002.7,N
1672845115.9,286047002.7,N
1672845135.7,286047001.9,N
1672845155.6,286046999.8,N
1672845175.4,286047000.1,N
1672845195.2,286047002.3,N
1672845215.1,286046999.9,N
1672845216.0,286046999.9,N
1672845235.8,286047002.8,N
1672845255.6,286047001.5,N
1672845275.5,286047001.5,N
1672845295.3,286047003.7,N
1672845315.1,286047003.6,N
1672845335.9,286047003.8,N
1672845355.7,286047003.2,N
1672845375.5,286047004.1,N
1672845395.4,286047001.6,N
1672845415.2,286047001.4,N
1672845435.0,286047003.7,N
1672845436.0,286047003.7,N
1672845455.8,286047004.4,Y
1672845475.6,286046999.9,P
1672845495.5,286046999.8,N
1672845515.3,286046999.9,N
1672845565.2,286047000.0,E
1672845575.1,286047000.5,N
1672845576.0,286047000.5,P
1672845595.8,286047000.7,P
1672845615.6,286047000.7,Y
1672845635.5,286046998.2,P
1672845655.3,286046998.2,N
1672845675.1,286046998.2,N
1672845695.9,286046998.2,N
1672845715.7,286046999.3,N
1672845735.5,286046999.1,N
1672845755.4,286046996.9,Y
1672845775.2,286046998.6,P
1672845795.1,286047000.9,P
1672845796.0,286047000.9,N
1672845815.8,286047000.8,N
1672845835.6,286046998.6,N
1672845855.5,286047000.8,N
1672845875.3,286047001.0,N
1672845895.1,286046998.6,N
1672845915.9,286046998.8,N
1672845935.7,286046998.9,N
1672845955.5,286046999.6,N
1672845975.4,286046998.9,N
1672845995.2,286046998.7,N
1672846015.0,286046998.9,N
1672846015.9,286046998.9,N
1672846035.8,286046998.7,N
1672846055.6,286046996.9,Y
1672846075.4,286046996.6,P
1672846095.3,286046996.6,N
1672846115.1,286046997.0,N
1672846116.0,286046997.0,N
1672846135.8,286046997.2,N
1672846155.7,286046997.4,N
1672846175.5,286046997.1,Y
1672846195.3,286047000.2,P
1672846215.2,286047000.4,N
1672846235.9,286047002.8,N
1672846255.7,286047001.5,N
1672846275.6,286047000.4,N
1672846295.4,286047001.2,N
1672846315.2,286046999.9,N
1672846335.1,286046998.5,N
1672846336.0,286046998.5,N
1672846355.8,286046998.4,N
1672846375.6,286046998.9,N
1672846395.5,286046998.4,N
1672846415.3,286046998.6,N
1672846435.1,286046998.2,N
1672846455.9,286046998.8,N
1672846475.7,286047000.6,N
1672846495.5,286047002.8,N
1672846515.4,286046999.7,N
1672846535.2,286047002.1,N
1672846555.0,286047002.0,N
1672846555.9,286047002.0,N
1672846575.8,286046999.8,N
1672846595.6,286047000.1,N
1672846615.4,286047000.5,N
1672846635.3,286047000.2,N
1672846655.1,286046999.9,N
1672846675.8,286046999.9,N
1672846695.7,286047000.1,N
1672846715.5,286046999.7,N
1672846735.3,286046999.8,N
1672846755.2,286046999.8,N
1672846775.0,286046999.9,N
1672846775.9,286046999.9,N
1672846795.7,286047002.6,N
1672846815.6,286047001.6,N
1672846835.4,286047001.9,N
1672846855.2,286047001.9,N
1672846875.1,286047001.4,N
1672846876.0,286047001.4,N
1672846895.8,286047003.1,N
1672846915.6,286047002.1,N
1672846935.5,286047002.3,N
1672846955.3,286047002.8,N
1672846975.1,286047002.0,N
1672846995.9,286047002.1,N
1672847015.7,286047002.0,N
1672847035.6,286047004.2,Y
1672847055.4,286047002.0,P
1672847075.2,286047002.0,P
1672847095.1,286047001.7,P
1672847096.0,286047001.7,Y
1672847115.8,286046999.7,P
1672847135.6,286047000.7,N
1672847155.5,286047001.0,N
1672847175.3,286046996.7,Y
1672847195.1,286046996.8,P
1672847215.9,286046999.1,N
1672847235.7,286046998.3,N
1672847255.5,286046998.3,N
1672847275.4,286047000.6,N
1672847295.2,286046998.5,N
1672847315.0,286046998.5,N
1672847315.9,286046998.5,N
1672847335.8,286047001.2,N
1672847355.6,286047000.5,N
1672847375.4,286047000.8,N
1672847395.3,286047000.2,N
1672847415.1,286047002.8,N
1672847416.0,286047002.8,N
1672847435.8,286047000.5,N
1672847455.7,286047000.2,N
1672847475.5,286047001.1,N
1672847495.3,286047000.8,N
1672847515.2,286047002.8,N
1672847535.9,286047002.0,N
1672847555.7,286047001.4,N
1672847575.6,286047002.0,N
1672847595.4,286047004.3,N
1672847615.2,286047002.2,N
1672847635.1,286047001.7,N
1672847636.0,286047001.7,N
1672847655.8,286047001.6,N
1672847675.6,286047000.3,N
1672847695.5,286046998.6,N
1672847715.3,286046998.5,N
1672847735.1,286046998.3,N
1672847755.9,286047000.8,N
1672847775.7,286047000.7,N
1672847795.5,286047000.3,N
1672847815.4,286047000.9,N
1672847835.2,286046998.5,N
1672847855.0,286046998.5,N
1672847855.9,286046998.5,N
1672847875.8,286046999.4,N
1672847895.6,286046999.2,N
1672847915.4,286046999.5,N
1672847935.3,286046996.7,N
1672847955.1,286046996.6,N
1672847975.8,286046999.0,N
1672847995.7,286046998.7,N
